This demonstration page uses our WeatherBlox Daily Observations layout. Learn more.

Left ArrowRight Arrow

53.62937, 11.41316

Hourly Observations for September 24, 2021

Temp ( °F °C ) Dew Point ( °F °C ) Humidity (%) Winds ( mph kmh ) Pressure ( in mb ) Visibility ( mi km ) Precip ( " mm )
7:50 am 07:50 Mostly Sunny 50 10 48 9 94 94 SW 5 7 29.89 1012 30 48 N/A
8:20 am 08:20 Mostly Sunny 52 11 48 9 88 88 SW 6 9 29.89 1012 30 48 N/A
8:50 am 08:50 Mostly Sunny 54 12 48 9 82 82 SSW 7 11 29.89 1012 30 48 N/A
9:20 am 09:20 Partly Cloudy 54 12 50 10 88 88 SSW 8 13 29.89 1012 30 48 N/A
9:50 am 09:50 Partly Cloudy 55 13 50 10 82 82 SSW 9 15 29.88 1012 30 48 N/A
10:20 am 10:20 Partly Cloudy 57 14 52 11 82 82 SW 10 17 29.88 1012 30 48 N/A
10:50 am 10:50 Mostly Cloudy 57 14 54 12 88 88 SW 9 15 29.88 1012 30 48 N/A
11:20 am 11:20 Mostly Cloudy 57 14 55 13 94 94 SW 12 19 29.88 1012 30 48 N/A
11:50 am 11:50 Mostly Cloudy 57 14 55 13 94 94 SW 10 17 29.88 1012 30 48 N/A
12:20 pm 12:20 Mostly Cloudy 59 15 55 13 88 88 SSW 8 13 29.88 1012 30 48 N/A
12:50 pm 12:50 Mostly Cloudy 61 16 55 13 83 83 SSW 10 17 29.88 1012 30 48 N/A
1:20 pm 13:20 Mostly Cloudy with Drizzle 61 16 55 13 83 83 SSW 14 22 29.88 1012 2 4 N/A
1:50 pm 13:50 Mostly Cloudy 61 16 57 14 88 88 SSW 13 20 29.85 1011 30 48 N/A
2:20 pm 14:20 Mostly Cloudy 61 16 57 14 88 88 SSW 15 24 29.85 1011 30 48 N/A
2:50 pm 14:50 Mostly Cloudy 61 16 57 14 88 88 SSW 14 22 29.85 1011 30 48 N/A
3:20 pm 15:20 Mostly Cloudy 61 16 57 14 88 88 SSW 12 19 29.85 1011 30 48 N/A
3:50 pm 15:50 Mostly Cloudy 63 17 57 14 83 83 SSW 9 15 29.85 1011 30 48 N/A
4:20 pm 16:20 Mostly Cloudy 63 17 57 14 83 83 SSW 9 15 29.85 1011 30 48 N/A
4:50 pm 16:50 Mostly Cloudy 63 17 57 14 83 83 SSW 10 17 29.85 1011 30 48 N/A
5:20 pm 17:20 Mostly Sunny 63 17 57 14 83 83 SSW 12 19 29.82 1010 30 48 N/A
5:50 pm 17:50 Partly Cloudy 63 17 57 14 83 83 SSW 12 19 29.82 1010 30 48 N/A
6:20 pm 18:20 Mostly Cloudy 63 17 57 14 83 83 SSW 12 19 29.82 1010 30 48 N/A
6:50 pm 18:50 Partly Cloudy 63 17 57 14 83 83 SSW 10 17 29.82 1010 30 48 N/A
7:20 pm 19:20 Partly Cloudy 63 17 57 14 83 83 SSW 8 13 29.82 1010 30 48 N/A
7:50 pm 19:50 Partly Cloudy 63 17 57 14 83 83 SSW 10 17 29.82 1010 30 48 N/A
8:20 pm 20:20 Partly Cloudy 63 17 57 14 83 83 SSW 10 17 29.82 1010 30 48 N/A
8:50 pm 20:50 Partly Cloudy 63 17 59 15 88 88 SSW 10 17 29.82 1010 30 48 N/A
9:20 pm 21:20 Partly Cloudy 63 17 59 15 88 88 SSW 13 20 29.85 1011 30 48 N/A
9:50 pm 21:50 Partly Cloudy 64 18 59 15 83 83 SSW 14 22 29.85 1011 30 48 N/A

Powered by AerisWeather